星链-3126 (STARLINK-3126 )

导读

STARLINK-3126是美国太空探索技术公司(SpaceX)星链(Starlink)卫星互联网项目中的卫星,于2021年11月13日发射入轨,属于星链低轨卫星星座组网卫星,承担卫星互联网信号中继服务,为全球提供高速低延迟的宽带互联网接入服务。

Basic Information
目录编号:
49444
目录名称:
STARLINK-3126
国际标识:
2021-104AN
轨道中心:
EARTH
卫星名称:
星链-3126
卫星全名:
星链-3126 (STARLINK-3126 )
卫星状态:
在轨 (已飞行1678 天)
发射日期:
2021-11-13 UTC
国别 :
美国 (US)
星等 :
--
Orbit Information
数据来源 国际轨道数据 AOE轨道数据
星历时间 2026-06-18T04:04:42+0800
11小时前
查看轨道信息
2026-06-14T04:00:00+0800
4天前
查看轨道信息
半长轴 6917.93km 6917.922km
偏心率 0.0001233 0.0001374
轨道倾角 53.162° 53.160°
近地点辐角 93.205° 87.599°
升交点赤经 119.456° 137.451°
平近点角 266.908° 115.647°
近地点 538.94km 538.834km
远地点 540.646km 540.736km
周期 95.439分钟 95.438分钟
每日圈数 15.088239 15.088266
Detailed Information
固有亮度:
5
最大亮度:
2.5
卫星平台:
Starlink v1.5
覆盖范围:
全球
运营商:
太空探索技术公司
运营商所在国:
美国
制造商(研发单位):
太空探索技术公司
制造商所在国:
美国
使用方式:
暂无
Satellite Introduction
星链(Starlink)计划是由太空探索技术公司(SpaceX)提出的一个巨型低轨卫星互联网星座项目,计划在2019年至2024年间在太空搭建由约1.2万颗卫星组成的“星链”网络,其中1584颗将部署在地球上空550千米处的近地轨道,并从2020年开始工作。该卫星仍在工作。
2D Orbit Map
3D Orbit Map
Orbit Altitude Analysis Chart
Orbit Inclination Analysis Chart
Orbit Comprehensive Analysis Chart
View Comprehensive Chart